EGPFEGPO

Guest
Details From EGPF - Glasgow
To EGPO - Stornoway
Flight Number -
Tags generated
Created
Modified
Stats Distance 154 nm / 285 km
Max Altitude 20,000 ft / 6,096 m
Waypoints 3
Social Downloads 1
Likes 0
Share VATSIM

Download

Looking for another format? Having issues loading an existing format? Contact us
Advertisement - Login to hide

Notes

Basic altitude profile: - Ascent Rate: 1500ft/min - Ascent Speed: 160kts - Cruise Altitude: 21000ft - Cruise Speed: 220kts - Descent Rate: 1500ft/min - Descent Speed: 220kts

Route

EGPF ORSUM EGPO

ID Type Via Altitude Latitude Longitude Leg Dist Tot Dist Heading (true) Name
O EGPF APT - 0 ft / 0 m 55.87173˚ -4.43365˚ - 0 nm - Glasgow
ORSUM FIX - 20,000 ft / 6,096 m 57.05194˚ -5.29472˚ 76 nm 76 nm 338° / 338° -
O EGPO APT - 0 ft / 0 m 58.21450˚ -6.33060˚ 77 nm 153 nm 335° / 334° Stornoway

Altitude Profile

Advertisement - Login to hide

EGPF

Details ICAO EGPF (GLA)
Name Glasgow
Region United Kingdom
Timezone Europe/London (UTC+1.0)
Stats Elevation 26 ft / 8 m (AMSL)
Location 55.871728° -4.433648°
Runways 1
Magnetic Variation 2.656° W

METAR

EGPF 241020Z AUTO 08008KT 030V130 9999 NCD 14/09 Q1026

Decode

TAF

TAF AMD EGPF 240858Z 2409/2506 07008KT 9999 BKN012 BECMG 2409/2411 FEW012 PROB40 2423/2506 7000 BKN005

Decode

Departure Runways

ID Width Length Bearing (true) Bearing (mag) Surface Threshold Offset Overrun Length
05 151 ft / 46 m 8,721 ft / 2,658 m 46.34° 49.00° Asphalt 0 ft / 0 m 499 ft / 152 m
23 151 ft / 46 m 8,721 ft / 2,658 m 226.37° 229.03° Asphalt 1,004 ft / 306 m 0 ft / 0 m

EGPO

Details ICAO EGPO (SYY)
Name Stornoway
Region United Kingdom
Timezone Europe/London (UTC+1.0)
Stats Elevation 26 ft / 8 m (AMSL)
Location 58.214496° -6.330596°
Runways 2
Magnetic Variation 3.950° W

METAR

EGPO 241020Z 17009KT CAVOK 15/10 Q1024

Decode

TAF

Not found

Destination Runways

ID Width Length Bearing (true) Bearing (mag) Surface Threshold Offset Overrun Length
07 75 ft / 23 m 3,574 ft / 1,090 m 59.83° 63.78° Asphalt 305 ft / 93 m 0 ft / 0 m
18 151 ft / 46 m 6,797 ft / 2,072 m 174.28° 178.23° Asphalt 0 ft / 0 m 397 ft / 121 m
25 75 ft / 23 m 3,574 ft / 1,090 m 239.84° 243.79° Asphalt 0 ft / 0 m 0 ft / 0 m
36 151 ft / 46 m 6,797 ft / 2,072 m 354.29° 358.24° Asphalt 0 ft / 0 m 394 ft / 120 m

Approach Navaids

Runway Type Ident Frequency Range Bearing (true) Bearing (mag) Slope Elevation
18 Localiser STW 110.90 MHz 18 nm / 33 km 180.37° 184.31° - 26 ft / 8 m (AMSL)
18 DME STW 110.90 MHz 18 nm / 33 km - - - 26 ft / 8 m (AMSL)
36 Localiser SOY 110.90 MHz 18 nm / 33 km 354.29° 358.24° - 26 ft / 8 m (AMSL)
36 DME SOY 110.90 MHz 18 nm / 33 km - - - 26 ft / 8 m (AMSL)

Popular Alternatives